Погода в Белоозёрске

Россия / Республика Бурятия     50°38′58″N   105°42′28″E
темп.,
°C
ветер,
м/с
пор.,
м/с
влажн.,
%
обл.,
%
осадки,
мм/ч
давл.,
гПа
погр.,
м
25 февраля, чт
чт2523:00−18з0110082 0.0 102720
02:00−19зюз1110088 0.0 102620
05:00−20юз1110087 0.0 102320
08:00−20з1110084 0.0 102420
11:00−14юз11847 0.0 1023142
14:00−11ю118248 0.0 1019198
17:00−10вюв0189100 0.0 101735
20:00−12св1187100 0.0 101421
26 февраля, пт
пт2623:00−13св1185100 0.0 101221
02:00−13з1190100 0.0 101220
05:00−11ссв2387100 0.0 101440
08:00−12с2386100 0.0 101627
11:00−10ссв2373100 0.0 1018375
14:00−10вюв1182100 0.3 1016351
17:00−10св2388100 1.1 1017445
20:00−12с2388100 1.3 102145
27 февраля, сб
сб2723:00−16сз3480100 0.0 1024102
02:00−19зсз1290100 0.2 102822
05:00−23зсз2275100 0.0 103321
08:00−25сз227390 0.0 103720
11:00−19зюз227130 0.0 1037209
14:00−17ююз226615 0.0 1035508
17:00−17ю128017 0.0 1035141
20:00−21всв118234 0.0 103820
28 февраля, вс
вс2823:00−22ссв118596 0.0 103920
02:00−23ссв119388 0.0 104020
05:00−26зсз119760 0.0 104120
08:00−27з119741 0.0 104320
11:00−21ююз218822 0.0 1041186
14:00−18ююз228426 0.0 1039310
17:00−18ю11878 0.0 103883
20:00−24с119025 0.0 104120
1 марта, пн
пн123:00−23св1188100 0.0 104220
02:00−26зсз119160 0.0 104120
05:00−27з119023 0.0 104120
08:00−28зюз118814 0.0 104119
11:00−21ююз22840 0.0 1038168
14:00−18ююз22790 0.0 1034274
17:00−17ююз11860 0.0 103274
20:00−23зсз11900 0.0 103320